Location: Unspecified
(43.4354°N, 0.0000°E)
Time: 02:03:53
(UTC+00:00)

Vanguard 2 Rocket - Pass Details

Date: 22 June 2019
Orbit: 553 x 3327 km, 32.9° (Epoch: 16 August)

Event Time Altitude Azimuth Distance (km) Brightness Sun altitude
Rises 04:05:19 0° 275° (W) 6,195 10.7 -2.9°
Reaches altitude 10° 04:09:58 10° 265° (W) 5,536 10.4 -2.2°
Maximum altitude 04:23:19 27° 216° (SW) 4,844 10.1 -0.3°
Drops below altitude 10° 04:38:23 10° 167° (SSE) 6,195 11.0 2.1°
Sets 04:44:10 0° 157° (SSE) 7,028 11.4 3.0°
